Weather Roundup
Issued by NWS

Home | Current Version | Previous Version | Graphics & Text | Print | Product List | Glossary Off
Versions: 1 2 3 4 5 6 7 8 9 10 11 12 13 14 15 16 17 18 19 20 21 22 23 24 25 26 27 28 29 30 31 32 33 34 35 36 37 38 39 40 41 42 43 44 45 46 47 48 49 50

000
NZUS93 KARX 010610
HRRWXR

CURRENT HOURLY OBSERVATIONS ACROSS
MUCH OF THE UPPER MISSISSIPPI VALLEY
NATIONAL WEATHER SERVICE LA CROSSE WI
100 AM CDT SAT AUG 01 2015


...SOUTHEAST MINNESOTA...


CITY           SKY/WX    TMP DP  RH WIND       PRES   REMARKS
ROCHESTER      PTCLDY    62  56  80 SW8       30.05S
ROCHESTER/MAYO FAIR      68  56  64 W7        30.04S
WINONA         CLEAR     61  57  88 CALM      30.01S
AUSTIN         PTCLDY    64  61  88 CALM      30.05S
ALBERT LEA     PTCLDY    64  63  94 SW5       30.05S
DODGE CENTER   MOCLDY    61  57  88 W5        30.05S
PRESTON        CLEAR     64  55  74 W8        30.05S
OWATONNA       MOCLDY    64  59  82 S3        30.04S
FARIBAULT      CLOUDY    66  61  82 CALM      30.03S
$$

...ELSEWHERE IN MINNESOTA...


CITY           SKY/WX    TMP DP  RH WIND       PRES   REMARKS
MINNEAPOLIS    PTCLDY    72  58  61 SW5       30.00S
INTNL FALLS    CLEAR     55  51  86 CALM      29.92S
DULUTH         CLEAR     59  49  69 W8        29.95S
RED WING       CLEAR     61  57  88 CALM      29.99F
REDWOOD FALLS  CLEAR     65  59  81 S5        30.01S
MANKATO        PTCLDY    66  57  72 S5        30.03S
WORTHINGTON    CLEAR     68  57  68 SW9       30.06F
FAIRMONT       CLEAR     64  54  68 S6        30.04S
$$

...SOUTHWEST WISCONSIN...


CITY           SKY/WX    TMP DP  RH WIND       PRES   REMARKS
LA CROSSE      CLEAR     65  58  78 S3        30.00S
PRAIRIE DU CHI CLEAR     62  56  82 CALM      30.03S
BOSCOBEL       CLEAR     60  57  89 SW5       30.03R
LONE ROCK      CLEAR     56  53  90 CALM      30.02S
PLATTEVILLE    CLEAR     62  57  83 SW3       30.04S
FORT MC COY    CLEAR     54  51  91 CALM      30.01S
CAMP DOUGLAS   CLEAR     52  52 100 CALM      29.99R
VIROQUA        FAIR      61  55  80 SW6       30.03S
WIS DELLS      CLEAR     58  51  75 CALM      30.00S
$$

...ELSEWHERE IN WISCONSIN...


CITY           SKY/WX    TMP DP  RH WIND       PRES   REMARKS
MILWAUKEE      PTCLDY    69  51  52 W5        29.97R
MADISON        CLEAR     67  51  56 W6        29.99S
GREEN BAY      CLOUDY    64  56  75 W7        29.93S
EAU CLAIRE     PTCLDY    60  53  77 SW3       29.98S
BLACK RVR FLS  FAIR      51  51 100 CALM      29.99S
MEDFORD        PTCLDY    59  52  77 W5        29.98S
WAUSAU         CLEAR     63  54  72 NW9       29.95S
WIS RAPIDS     CLEAR     61  51  70 W3        29.99S
MARSHFIELD     CLEAR     60  50  69 W5        29.98S
RICE LAKE      CLEAR     55  53  91 CALM      30.00S
$$

...NORTHEAST IOWA...


CITY           SKY/WX    TMP DP  RH WIND       PRES   REMARKS
DECORAH        CLEAR     63  59  88 SW3       30.05R
MASON CITY     CLEAR     60  58  92 CALM      30.07S
CHARLES CITY   CLEAR     61  61 100 CALM      30.07S
OELWEIN          N/A     63  59  88 SW5       30.07S
$$

...ELSEWHERE IN IOWA...


CITY           SKY/WX    TMP DP  RH WIND       PRES   REMARKS
DES MOINES     MOCLDY    74  64  71 CALM      30.07S
IOWA CITY      CLEAR     64  60  87 CALM      30.07R
FORT DODGE     CLEAR     63  61  94 CALM      30.09S
$$

...NORTHERN ILLINOIS...


CITY           SKY/WX    TMP DP  RH WIND       PRES   REMARKS
CHICAGO-OHARE  CLEAR     69  52  54 W8        29.99R
CHICAGO-MIDWAY CLEAR     72  51  47 W5        29.99R
MOLINE         CLEAR     65  58  78 CALM      30.05R
ROCKFORD       CLEAR     63  54  72 VRB3      30.03R
PEORIA         CLEAR     72  58  61 N3        30.05R
$$

NOTE: "FAIR" INDICATES FEW OR NO CLOUDS BELOW 12,000 FEET WITH NO
SIGNIFICANT WEATHER AND/OR OBSTRUCTIONS TO VISIBILITY. WIND
SPEEDS ARE IN MILES-PER-HOUR.



USA.gov is the U.S. government's official web portal to all federal, state and local government web resources and services.